TimeEDT,TemperatureF,Dew PointF,Humidity,Sea Level PressureIn,VisibilityMPH,Wind Direction,Wind SpeedMPH,Gust SpeedMPH,PrecipitationIn,Events,Conditions,WindDirDegrees,DateUTC
12:53 AM,79.0,75.0,88,29.93,10.0,SW,8.1,-,N/A,,Clear,220,2013-07-25 04:53:00
1:53 AM,78.1,73.9,87,29.92,10.0,SW,8.1,-,N/A,,Clear,220,2013-07-25 05:53:00
2:53 AM,77.0,73.9,90,29.90,10.0,SW,6.9,-,N/A,,Clear,220,2013-07-25 06:53:00
3:53 AM,77.0,73.9,90,29.89,10.0,SSW,8.1,-,N/A,,Clear,210,2013-07-25 07:53:00
4:53 AM,77.0,73.9,90,29.89,10.0,SSW,8.1,-,N/A,,Clear,210,2013-07-25 08:53:00
5:53 AM,77.0,73.9,90,29.91,10.0,SW,8.1,-,N/A,,Clear,220,2013-07-25 09:53:00
6:53 AM,75.9,73.9,94,29.91,8.0,SW,8.1,-,N/A,,Clear,220,2013-07-25 10:53:00
7:53 AM,78.1,75.0,90,29.93,10.0,SW,9.2,-,N/A,,Clear,220,2013-07-25 11:53:00
8:42 AM,73.4,71.6,94,29.96,2.0,WNW,17.3,29.9,0.08,Rain,Rain,290,2013-07-25 12:42:00
8:53 AM,73.0,71.1,93,29.97,1.2,West,12.7,-,0.19,Rain,Heavy Rain,260,2013-07-25 12:53:00
8:59 AM,73.4,71.6,94,29.98,3.0,WSW,12.7,20.7,0.01,Rain,Light Rain,240,2013-07-25 12:59:00
9:06 AM,73.4,71.6,94,29.98,10.0,WSW,13.8,-,0.01,Rain-Thunderstorm,Light Thunderstorms and Rain,240,2013-07-25 13:06:00
9:35 AM,73.4,71.6,94,29.97,7.0,SW,9.2,-,0.02,Rain,Light Rain,220,2013-07-25 13:35:00
9:53 AM,73.9,72.0,93,29.97,5.0,WSW,5.8,-,0.04,Rain,Rain,250,2013-07-25 13:53:00
10:53 AM,75.0,72.0,90,29.98,10.0,SW,12.7,-,0.03,Rain,Light Rain,220,2013-07-25 14:53:00
11:53 AM,77.0,73.9,90,29.99,10.0,SW,9.2,-,0.00,,Clear,230,2013-07-25 15:53:00
12:53 PM,80.1,75.0,85,29.98,10.0,SW,10.4,-,N/A,,Clear,220,2013-07-25 16:53:00
1:53 PM,82.0,75.0,79,29.98,10.0,WSW,13.8,-,N/A,,Clear,240,2013-07-25 17:53:00
2:53 PM,84.0,75.0,74,29.97,10.0,West,11.5,17.3,N/A,,Mostly Cloudy,270,2013-07-25 18:53:00
3:53 PM,80.1,75.9,87,29.96,10.0,West,9.2,-,0.00,Rain,Light Rain,280,2013-07-25 19:53:00
4:53 PM,82.0,75.9,82,29.96,10.0,West,8.1,-,0.00,,Partly Cloudy,260,2013-07-25 20:53:00
5:53 PM,82.0,75.0,79,29.96,10.0,West,6.9,-,N/A,,Clear,260,2013-07-25 21:53:00
6:53 PM,82.9,75.0,77,29.95,10.0,WSW,5.8,-,N/A,,Clear,240,2013-07-25 22:53:00
7:53 PM,82.0,75.9,82,29.96,10.0,SSW,3.5,-,N/A,,Clear,210,2013-07-25 23:53:00
8:53 PM,81.0,73.0,77,29.97,10.0,SW,4.6,-,N/A,,Clear,230,2013-07-26 00:53:00
9:53 PM,80.1,73.0,79,29.97,10.0,SW,4.6,-,N/A,,Mostly Cloudy,220,2013-07-26 01:53:00
10:53 PM,79.0,72.0,79,29.99,10.0,SSW,5.8,-,N/A,,Scattered Clouds,210,2013-07-26 02:53:00
11:53 PM,78.1,73.0,84,29.99,10.0,SSW,4.6,-,N/A,,Partly Cloudy,200,2013-07-26 03:53:00